Location: Beemte
(52.2555°N, 5.9895°E)
Time: 04:54:06
(UTC+00:00)

Cosmos 44 Rocket - Pass Details

Date: 15 May 2026
Orbit: 631 x 746 km, 65.1° (Epoch: 6 June)

Event Time Altitude Azimuth Distance (km) Brightness Sun altitude
Rises 19:58:09 0° 237° (WSW) 3,127 6.9 -4.9°
Reaches altitude 10° 20:00:32 10° 242° (WSW) 2,224 6.2 -5.2°
Maximum altitude 20:05:32 55° 320° (NW) 892 4.4 -5.8°
Drops below altitude 10° 20:10:40 10° 38° (NE) 2,271 6.0 -6.4°
Sets 20:13:07 0° 43° (NE) 3,199 6.7 -6.6°
